Location: Baix
(44.7118°N, 4.7648°E)
Time: 06:38:56
(UTC+00:00)

Vanguard 1 - Pass Details

Date: 28 November 2020
Orbit: 648 x 3834 km, 34.3° (Epoch: 21 January)

Event Time Altitude Azimuth Distance (km) Brightness Sun altitude
Rises 05:55:57 0° 243° (WSW) 3,642 12.6 -10.3°
Reaches altitude 10° 05:58:12 10° 236° (WSW) 2,936 12.2 -9.9°
Maximum altitude 06:05:02 44° 166° (SSE) 2,053 12.0 -8.8°
Drops below altitude 10° 06:17:07 10° 101° (ESE) 5,126 15.3 -6.8°
Sets 06:22:27 0° 97° (E) 6,660 16.0 -6.0°
